Location: Audinghen
(50.8518°N, 1.6129°E)
Time: 20:49:01
(UTC+00:00)

Cosmos 1743 - Pass Details

Date: 07 August 2020
Orbit: 509 x 528 km, 82.5° (Epoch: 21 September)

Event Time Altitude Azimuth Distance (km) Brightness Sun altitude
Exits shadow 00:41:52 31° 279° (W) 951 3.9 -22.2°
Maximum altitude 00:42:09 31° 288° (WNW) 943 4.0 -22.2°
Drops below altitude 10° 00:45:41 10° 352° (N) 1,786 6.4 -22.0°
Sets 00:48:02 0° 3° (N) 2,682 7.8 -22.0°
